State College, PA

12:39 PM EDT on September 19, 2017 (GMT -0400)
University Park

Weather History for KUNV - November, 2012

Change the Weather History Date:

Tuesday, November 27, 2012

  Actual Average Record
Temperature  
Mean Temperature 32 °F -  
Max Temperature 35 °F 47 °F 64 °F (1979)
Min Temperature 30 °F 30 °F 8 °F (1938)
Degree Days  
Heating Degree Days 32    
Moisture  
Dew Point 26 °F    
Average Humidity 79    
Maximum Humidity 100    
Minimum Humidity 58    
Precipitation  
Precipitation 0.00 in - - ()
Sea Level Pressure  
Sea Level Pressure 30.22 in    
Wind  
Wind Speed 1 mph (NNW)    
Max Wind Speed 6 mph    
Max Gust Speed -    
Visibility 6 miles    
Events Rain , Snow    
Averages and records for this station are not official NWS values.
T = Trace of Precipitation, MM = Missing Value Source: NWS Daily Summary

Daily Weather History Graph

Daily Weather History Graph

Search for Another Location

Airport or City:

Trip Planner

Search our weather history database for the weather conditions in past years. The results will help you decide how hot, cold, wet, or windy it might be!

Date:

Astronomy

Nov. 27, 2012 Rise Set
Actual Time 7:12 AM EST 4:45 PM EST
Civil Twilight 6:42 AM EST 5:15 PM EST
Nautical Twilight 6:08 AM EST 5:49 PM EST
Astronomical Twilight 5:35 AM EST 6:22 PM EST
Moon 4:15 PM EST (11/27) 6:15 AM EST (11/27)
Length of Visible Light 10h 33m
Length of Day
9h 32m
Waxing Gibbous, 99% of the Moon is Illuminated
Nov 27
Waxing Gibbous
Nov 28
Full
Dec 6
Last Quarter
Dec 13
New
Dec 20
First Quarter

Hourly Weather History & Observations

Time (EST) Temp. Windchill Dew Point Humidity Pressure Visibility Wind Dir Wind Speed Gust Speed Precip Events Conditions
12:15 AM 31.5 °F - 24.1 °F 74% 30.20 in 10.0 mi Calm Calm - N/A   Overcast
12:35 AM 31.8 °F - 23.9 °F 73% 30.20 in 10.0 mi Calm Calm - N/A   Overcast
12:55 AM 32.2 °F 28.9 °F 24.1 °F 72% 30.19 in 10.0 mi NW 3.5 mph - N/A   Overcast
5:53 AM 30.2 °F - 28.4 °F 93% 30.19 in 2.5 mi Calm Calm - N/A Snow Light Snow
6:53 AM 30.2 °F - 30.2 °F 100% 30.20 in 2.5 mi Calm Calm - N/A Snow Light Snow
7:13 AM 30.2 °F - 28.4 °F 93% 30.20 in 2.0 mi Calm Calm - N/A Snow Light Snow
7:25 AM 30.2 °F - 28.4 °F 93% 30.20 in 1.0 mi Calm Calm - N/A Snow Light Snow
7:53 AM 30.2 °F - 28.4 °F 93% 30.20 in 0.8 mi Calm Calm - N/A Snow Light Snow
8:16 AM 30.2 °F - 30.2 °F 100% 30.20 in 1.0 mi Calm Calm - N/A Snow Light Snow
8:53 AM 30.2 °F - 30.2 °F 100% 30.22 in 1.2 mi Calm Calm - N/A Snow Light Snow
9:13 AM 32.0 °F - 30.2 °F 93% 30.22 in 1.5 mi Calm Calm - N/A Snow Light Snow
9:53 AM 32.0 °F - 30.2 °F 93% 30.23 in 1.2 mi Calm Calm - N/A Snow Light Snow
10:53 AM 32.0 °F - 32.0 °F 100% 30.23 in 2.0 mi Calm Calm - N/A Snow Light Snow
11:14 AM 32.0 °F - 32.0 °F 100% 30.22 in 2.0 mi Calm Calm - N/A Snow Light Snow
11:53 AM 32.0 °F - 32.0 °F 100% 30.22 in 2.5 mi Calm Calm - N/A Rain Light Rain
12:53 PM 33.8 °F - 32.0 °F 93% 30.21 in 2.5 mi Calm Calm - N/A   Overcast
1:53 PM 35.6 °F 32.8 °F 32.0 °F 87% 30.19 in 5.0 mi East 3.5 mph - N/A   Overcast
2:53 PM 35.6 °F - 32.0 °F 87% 30.20 in 7.0 mi Calm Calm - N/A   Overcast
3:53 PM 33.8 °F - 32.0 °F 93% 30.20 in 7.0 mi Calm Calm - N/A   Overcast
5:53 PM 33.8 °F 29.6 °F 28.4 °F 81% 30.21 in 7.0 mi NNW 4.6 mph - N/A   Overcast
6:53 PM 33.8 °F 28.6 °F 26.6 °F 75% 30.22 in 10.0 mi NNW 5.8 mph - N/A   Overcast
7:53 PM 33.8 °F 29.6 °F 21.2 °F 60% 30.23 in 10.0 mi NNW 4.6 mph - N/A   Overcast
8:15 PM 33.4 °F 30.4 °F 21.4 °F 61% 30.23 in 10.0 mi NW 3.5 mph - N/A   Overcast
8:35 PM 33.3 °F 28.9 °F 21.6 °F 62% 30.23 in 10.0 mi NW 4.6 mph - N/A   Overcast
8:55 PM 33.1 °F 30.0 °F 22.1 °F 64% 30.24 in 10.0 mi NW 3.5 mph - N/A   Overcast
9:15 PM 32.7 °F 28.3 °F 21.6 °F 64% 30.24 in 10.0 mi North 4.6 mph - N/A   Overcast
9:35 PM 32.5 °F 28.1 °F 20.5 °F 61% 30.24 in 10.0 mi NW 4.6 mph - N/A   Overcast
9:55 PM 32.5 °F 29.3 °F 19.4 °F 58% 30.24 in 10.0 mi NNW 3.5 mph - N/A   Overcast
10:15 PM 32.0 °F - 19.4 °F 60% 30.24 in 10.0 mi Calm Calm - N/A   Overcast
10:35 PM 32.0 °F - 19.0 °F 59% 30.23 in 10.0 mi Calm Calm - N/A   Overcast
10:55 PM 32.0 °F - 18.5 °F 58% 30.24 in 10.0 mi Calm Calm - N/A   Overcast
11:15 PM 32.0 °F - 18.5 °F 58% 30.23 in 10.0 mi Calm Calm - N/A   Overcast
11:35 PM 31.6 °F - 19.8 °F 62% 30.23 in 10.0 mi Calm Calm - N/A   Overcast
11:55 PM 31.8 °F 28.5 °F 19.8 °F 61% 30.23 in 10.0 mi West 3.5 mph - N/A   Overcast